Weather in Ryndino

Russia / Chuvash Republic     55°51′15″N   47°26′26″E
temp.,
°C
wind,
m/s
gust,
m/s
humid.,
%
clouds,
%
prec.,
mm/h
press.,
hPa
HPBL,
m
8 may, sat
sat800:00+7nnw3793100 1.7 1016347
03:00+7nne2291100 2.1 1017101
06:00+8ne3688100 0.1 1017318
09:00+8ene368491 0.1 1018494
12:00+10ene348165 0.0 1017456
15:00+11ese448198 0.0 1015621
18:00+13sse257947 0.0 1014350
21:00+9ese369052 0.0 101289
9 may, sun
sun900:00+10sse51284100 0.0 1011230
03:00+9sse3989100 0.0 1010144
06:00+12sse61480100 0.0 1010347
09:00+14sse61470100 0.0 1010533
12:00+17s61166100 0.1 1011826
15:00+18s61062100 0.1 10101402
18:00+13sw51193100 1.8 1012567
21:00+9wnw3694100 3.3 1015337
10 may, mon
mon1000:00+7wnw5793100 1.3 1017329
03:00+5wnw4791100 1.3 1019401
06:00+6nw4890100 0.0 1021544
09:00+7nnw5991100 0.3 1023605
12:00+8nnw5786100 0.2 1025724
15:00+10n677898 0.3 1026856
18:00+10nne6976100 0.0 1027827
21:00+6nne3988100 0.0 1029178
11 may, tue
tue1100:00+4ne35901 0.0 103077
03:00+4nne38920 0.0 1030146
06:00+7ne411811 0.0 1031337
09:00+12ene68581 0.0 1031773
12:00+15ne56475 0.0 10311054
15:00+17ne56435 0.0 10301204
18:00+15e36632 0.0 1030166
21:00+10ene33705 0.0 103134
12 may, wed
wed1200:00+8ene37735 0.0 1031105
03:00+7ene34745 0.0 103156
06:00+9e37725 0.0 1032182
09:00+15e46525 0.0 1031560
12:00+18e45445 0.0 10301034
15:00+19e56456 0.0 10291207
18:00+17e35649 0.0 1029133
21:00+13e34762 0.0 102953